CZ-6A DEB

Satellite information

Favourite Embed

Satellite Type and Status

DEBRISIN ORBIT

Key statistics

Satellite CZ-6A DEB at a glance.

Uptime

439

Days in orbit

Revolutions

≈ 14.8

Per day

Orbit

LEO

Low Earth Orbit

Inclination

89.0

Latest

Satellite identification and parameters

Extended collection of information and parameters for CZ-6A DEB.

Object identification

Identified? True

Debris? True

Object name: CZ-6A DEB

International designator: 2024-140YA

Object number (NORAD): 61409

Object ID (CCSDS): 61409

Country: PEOPLES REPUBLIC OF CHINA (PRC)

Current information (Y/N): Y

RCS size: SMALL

Orbital parameters

Period: 97.568 minutes

Inclination: 89.0313 deg

SMA: 7020.466 km

Apoapsis: 717.064 km

Periapsis: 567.598 km

RAAN: 299.8704 deg

Eccentricy: 0.01064498

Argument of periapsis: 326.1355 deg

Mean anomaly: 33.3097 deg

Mean motion: 14.75889579 rev/day

Mean motion (dot): 0.00025503 rev/day2

B* drag term: 0.0033751888 1/REarth

Two-line elements (TLE)

Creation date: Oct. 18, 2025, 2:17 a.m.

Reference frame: TEME

Reference center: EARTH

Epoch: Oct. 17, 2025, 11:45 p.m. UTC

TLE line 0: 0 CZ-6A DEB

TLE line 1: 1 61409U 24140YA 25290.99012811 .00025503 00000-0 33752-2 0 9997

TLE line 2: 2 61409 89.0313 299.8704 0106450 326.1355 33.3097 14.75889579 59165

Live tracking on map

Real-time ground track for satellite CZ-6A DEB.

In-orbit conjunctions

A list of the most updated potential collisions computed for object CZ-6A DEB.

Target Orbit TCA Probability of collision Miss distance Type
COSMOS 2251 DEB LEO 2025-03-03 00:09:48 0.0001032469 986.0 (m) DEBRIS
ORBCOMM-X SSO 2025-03-02 15:57:03 0.0004192395 380.0 (m) PAYLOAD
NOAA 16 DEB SSO 2025-02-05 14:29:29 0.0002667009 149.0 (m) DEBRIS
IRIDIUM 33 DEB LEO 2024-11-29 03:26:13 0.0001673926 334.0 (m) DEBRIS
DUMSAT LEO 2024-10-29 23:17:26 0.0004019174 344.0 (m) PAYLOAD

Associated space launch

18 Low Earth Orbit communication satellites with Ku, Q and V band payloads for the G60 constellation operated by Shanghai Spacecom Satellite Technology (SSST) with funding backed by the Shanghai local government. Initial constellation will consist of 1296 satellites by 2027 with long term plans to expand it to 12000 satellites.

CZ-6A DEB was lifted into orbit during the mission ‘Long March 6A | G60 Polar Group 01’, on board a Long March 6A space rocket.

The launch took place on Aug. 6, 2024, 6:42 a.m. from Launch Complex 9A.

For more information about the launch, click the button.

Launch to space Long March 6A | G60 Polar Group 01
Long March 6A | G60 Polar Group 01

Agency: N/A

Status: Launch Successful

Launch date: Aug. 6, 2024, 6:42 a.m. UTC

Rocket: Long March 6A

Launch pad: Launch Complex 9A

Location: Taiyuan Satellite Launch Center, People's Republic of China

...

Latest news about this satellite

News about space launch
Brightness of first Chinese broadband constellation satellites alarms astronomers

The first satellites of a Chinese broadband constellation are significantly brighter than those of Western systems, posing a new challenge for astronomers.

News about space launch
Chinese rocket stage breaks up into cloud of more than 700 pieces of space debris

HELSINKI — A Chinese Long March 6A rocket’s upper stage has fragmented into a cloud of over 700 pieces of space debris, adding to concerns about long-term orbital safety. China […]

News about space launch
China's Thousand Sails Megaconstellation Kicks Off with Dangerous Debris Field

China's Thousand Sails Megaconstellation Kicks Off with Dangerous Debris Field


Newsletter sign-up

Weekly statistics, charts and insights to help you stay on top of the space industry.